Regional Weather Roundup
Issued by NWS

Home | Current Version | Previous Version | Graphics & Text | Print | Product List | Glossary Off
Versions: 1 2 3 4 5 6 7 8 9 10 11 12 13 14 15 16 17 18 19 20 21 22 23 24 25 26 27 28 29 30 31 32 33 34 35 36 37 38 39 40 41 42 43 44 45 46 47 48 49 50

000
ASUS43 KTOP 191608
RWRKS

WEATHER ROUNDUP FOR KANSAS
NATIONAL WEATHER SERVICE GOODLAND KS
1000 AM CST SUN FEB 19 2017

NOTE:  "FAIR" INDICATES FEW OR NO CLOUDS BELOW 12,000 FEET WITH NO
SIGNIFICANT WEATHER AND/OR OBSTRUCTIONS TO VISIBILITY.

KSZ001>006-013>018-027>032-041>047-191700-
NORTHWEST KANSAS

CITY           SKY/WX    TMP DP  RH WIND       PRES   REMARKS
GOODLAND       CLOUDY    55  37  50 S21       29.72S
HAYS           CLOUDY    50  49  96 S13       29.86R FOG
HILL CITY      CLOUDY    54  50  86 SW10      29.82S FOG
RUSSELL        CLOUDY    51  51 100 S16       29.85R FOG
$$

KSZ061>065-074>080-084>089-191700-
SOUTHWEST KANSAS

CITY           SKY/WX    TMP DP  RH WIND       PRES   REMARKS
DODGE CITY     MOSUNNY   51  49  92 S15       29.87R FOG
ELKHART          N/A     51  39  63 S14         N/A
GARDEN CITY    PTSUNNY   52  49  89 S10       29.83F
GREAT BEND     CLOUDY    51  51 100 S15       29.87S FOG
LIBERAL        SUNNY     54  48  82 SE10      29.84F
PRATT          FOG       47  47  99 S13       29.89S VSB 1/4
$$

KSZ066>073-081>083-090>101-191700-
SOUTHEAST KANSAS

CITY           SKY/WX    TMP DP  RH WIND       PRES   REMARKS
CHANUTE        CLOUDY    53  52  96 SE8       29.98S FOG
COFFEYVILLE    CLOUDY    58  54  86 S10       29.98R
HUTCHINSON     CLOUDY    51  50  96 S15       29.90F FOG
MEDICINE LODGE   N/A     49  49 100 S13       29.91R
NEWTON         FOG       50  50 100 S14       29.93R VSB 1/4
PARSONS        CLOUDY    56  53  90 SE6       29.99R
WICHITA INTL   FOG       52  52 100 S13       29.92S VSB 1/4
WICHITA JABRA  FOG       51  51 100 S12       29.93R VSB 1
WICHITA MCCONL FOG       52  52  99 S15       29.92S VSB 1
WINFIELD       CLOUDY    54  54 100 S8        29.95R FOG
$$

KSZ007>012-019>026-033>040-048>060-102>105-191700-
NORTHEAST KANSAS

CITY           SKY/WX    TMP DP  RH WIND       PRES   REMARKS
CONCORDIA      CLOUDY    57  52  83 S20       29.87F
EMPORIA        FOG       50  50 100 SE10      29.94F VSB 1
LAWRENCE       SUNNY     58  52  80 SE6       29.97S
MANHATTAN      CLOUDY    56  52  86 S14       29.93R
MARYSVILLE     MOSUNNY   57  50  77 S9        29.92S
OLATHE IND     SUNNY     59  52  77 S10       29.98F
OLATHE EXE     SUNNY     50  50 100 SE10      29.97F
SALINA         FOG       54  52  93 S12       29.90F VSB 1/2
TOPEKA BILLARD MOSUNNY   56  50  80 S9        29.96S
TOPEKA FORBES  MOSUNNY   54  50  86 S9        29.95F
$$




USA.gov is the U.S. government's official web portal to all federal, state and local government web resources and services.